NJE5R EKVG-ENTC

Flight info

Callsign NJE5R
Flight time 1h 41m
Altitude 37000
Route ODEVA DCT 65N000E/N0468F370 DCT NORVA DCT GILGU
Aircraft CL60/M-SBDE1E2E3FGHIJ1J4J5J7M3RWXYZ/LB1V1D1

Departure

Time 2026-04-30 12:13
Airport Vágar Airport (EKVG)

Arrival

Time 2026-04-30 13:54
Airport Tromsø Airport (ENTC)
Time Latitude Longitude Altitude Speed Heading
2026-04-30 11:49 62.06730 -7.28130 288 ft 0 kts 76°
2026-04-30 12:09 62.06730 -7.28117 288 ft 1 kts 108°
2026-04-30 12:09 62.06711 -7.28128 288 ft 4 kts 213°
2026-04-30 12:09 62.06689 -7.28130 288 ft 4 kts 157°
2026-04-30 12:10 62.06647 -7.28099 288 ft 7 kts 167°
2026-04-30 12:10 62.06588 -7.28088 289 ft 9 kts 182°
2026-04-30 12:10 62.06515 -7.28130 290 ft 11 kts 203°
2026-04-30 12:10 62.06497 -7.28272 290 ft 13 kts 296°
2026-04-30 12:11 62.06549 -7.28486 286 ft 18 kts 298°
2026-04-30 12:11 62.06619 -7.28771 280 ft 24 kts 297°
2026-04-30 12:11 62.06692 -7.29068 277 ft 13 kts 296°
2026-04-30 12:11 62.06704 -7.29173 277 ft 7 kts 269°
2026-04-30 12:12 62.06723 -7.29205 278 ft 4 kts 82°
2026-04-30 12:12 62.06721 -7.29190 278 ft 0 kts 112°
2026-04-30 12:12 62.06590 -7.28646 283 ft 92 kts 117°
2026-04-30 12:12 62.06156 -7.26945 495 ft 159 kts 122°
2026-04-30 12:13 62.05635 -7.24709 1278 ft 180 kts 120°
2026-04-30 12:13 62.04930 -7.22787 2649 ft 167 kts 147°
2026-04-30 12:13 62.03896 -7.21981 3845 ft 168 kts 178°
2026-04-30 12:13 62.02757 -7.22501 4998 ft 179 kts 202°
2026-04-30 12:14 62.01579 -7.23423 6076 ft 194 kts 194°
2026-04-30 12:14 62.00206 -7.23769 7060 ft 215 kts 183°
2026-04-30 12:14 61.98671 -7.23413 8066 ft 237 kts 172°
2026-04-30 12:14 61.97075 -7.22137 9063 ft 260 kts 158°
2026-04-30 12:15 61.95568 -7.19864 9936 ft 280 kts 143°
2026-04-30 12:15 61.94354 -7.16570 10712 ft 292 kts 126°
2026-04-30 12:15 61.93627 -7.12533 11445 ft 303 kts 108°
2026-04-30 12:15 61.93326 -7.08025 12224 ft 314 kts 103°
2026-04-30 12:16 61.93037 -7.03287 12967 ft 334 kts 104°
2026-04-30 12:16 61.92724 -6.98307 13710 ft 353 kts 104°
2026-04-30 12:16 61.92392 -6.93053 14458 ft 369 kts 104°
2026-04-30 12:16 61.92041 -6.87519 15196 ft 384 kts 104°
2026-04-30 12:17 61.91304 -6.75982 16693 ft 403 kts 104°
2026-04-30 12:17 61.91072 -6.70034 17446 ft 415 kts 95°
2026-04-30 12:17 61.91474 -6.63826 18215 ft 430 kts 79°
2026-04-30 12:18 61.92643 -6.57844 18986 ft 443 kts 62°
2026-04-30 12:18 61.94564 -6.52731 19743 ft 452 kts 44°
2026-04-30 12:18 61.96939 -6.48293 20482 ft 457 kts 41°
2026-04-30 12:18 61.99312 -6.43921 21224 ft 460 kts 41°
2026-04-30 12:19 62.01741 -6.39425 21984 ft 462 kts 41°
2026-04-30 12:19 62.04167 -6.34929 22738 ft 464 kts 42°
2026-04-30 12:19 62.06585 -6.30437 23490 ft 464 kts 42°
2026-04-30 12:19 62.08992 -6.25958 24246 ft 464 kts 42°
2026-04-30 12:20 62.11427 -6.21419 25042 ft 465 kts 41°
2026-04-30 12:20 62.13840 -6.16912 25804 ft 465 kts 41°
2026-04-30 12:20 62.16287 -6.12331 26570 ft 466 kts 41°
2026-04-30 12:20 62.18733 -6.07742 27200 ft 471 kts 41°
2026-04-30 12:21 62.21234 -6.03041 27745 ft 480 kts 41°
2026-04-30 12:21 62.23742 -5.98317 28255 ft 488 kts 41°
2026-04-30 12:21 62.26320 -5.93449 28767 ft 495 kts 41°
2026-04-30 12:21 62.28915 -5.88536 29238 ft 502 kts 41°
2026-04-30 12:22 62.31543 -5.83552 29729 ft 505 kts 41°
2026-04-30 12:22 62.34149 -5.78596 30237 ft 508 kts 41°
2026-04-30 12:22 62.36842 -5.73463 30754 ft 511 kts 41°
2026-04-30 12:22 62.39487 -5.68408 31217 ft 515 kts 41°
2026-04-30 12:23 62.42162 -5.63284 31678 ft 518 kts 41°
2026-04-30 12:23 62.44873 -5.58079 32173 ft 520 kts 41°
2026-04-30 12:23 62.47556 -5.52914 32690 ft 520 kts 41°
2026-04-30 12:23 62.50240 -5.47735 33202 ft 519 kts 41°
2026-04-30 12:24 62.52940 -5.42512 33693 ft 518 kts 41°
2026-04-30 12:24 62.55590 -5.37373 34168 ft 517 kts 41°
2026-04-30 12:24 62.58270 -5.32164 34639 ft 517 kts 43°
2026-04-30 12:24 62.60943 -5.26954 35092 ft 516 kts 43°
2026-04-30 12:25 62.63610 -5.21744 35532 ft 515 kts 43°
2026-04-30 12:25 62.66251 -5.16572 35959 ft 515 kts 43°
2026-04-30 12:25 62.68892 -5.11386 36376 ft 514 kts 43°
2026-04-30 12:25 62.71519 -5.06213 36724 ft 513 kts 43°
2026-04-30 12:26 62.74165 -5.00993 37001 ft 512 kts 43°
2026-04-30 12:26 62.76810 -4.95760 37160 ft 515 kts 43°
2026-04-30 12:26 62.82150 -4.85155 37187 ft 527 kts 43°
2026-04-30 12:27 62.87626 -4.74223 37194 ft 538 kts 43°
2026-04-30 12:27 62.93135 -4.63168 37188 ft 543 kts 43°
2026-04-30 12:28 62.98693 -4.51954 37192 ft 543 kts 43°
2026-04-30 12:28 63.04229 -4.40726 37192 ft 542 kts 43°
2026-04-30 12:29 63.09749 -4.29469 37191 ft 541 kts 44°
2026-04-30 12:29 63.15312 -4.18065 37191 ft 541 kts 44°
2026-04-30 12:30 63.20777 -4.06799 37200 ft 542 kts 44°
2026-04-30 12:30 63.26280 -3.95395 37210 ft 542 kts 44°
2026-04-30 12:31 63.31762 -3.83970 37207 ft 543 kts 44°
2026-04-30 12:31 63.37242 -3.72487 37187 ft 543 kts 44°
2026-04-30 12:32 63.42747 -3.60890 37207 ft 542 kts 44°
2026-04-30 12:32 63.48200 -3.49336 37211 ft 542 kts 44°
2026-04-30 12:33 63.53677 -3.37670 37207 ft 543 kts 44°
2026-04-30 12:33 63.59108 -3.26037 37204 ft 542 kts 45°
2026-04-30 12:34 63.64530 -3.14357 37206 ft 542 kts 45°
2026-04-30 12:34 63.69964 -3.02586 37210 ft 542 kts 45°
2026-04-30 12:35 63.75354 -2.90847 37222 ft 541 kts 44°
2026-04-30 12:35 63.80750 -2.79026 37233 ft 541 kts 44°
2026-04-30 12:36 63.86121 -2.67197 37232 ft 541 kts 44°
2026-04-30 12:36 63.91497 -2.55287 37234 ft 541 kts 44°
2026-04-30 12:37 63.96829 -2.43410 37252 ft 540 kts 44°
2026-04-30 12:37 64.02164 -2.31458 37263 ft 540 kts 45°
2026-04-30 12:38 64.07524 -2.19382 37264 ft 540 kts 45°
2026-04-30 12:38 64.12814 -2.07397 37279 ft 540 kts 45°
2026-04-30 12:39 64.18164 -1.95205 37264 ft 541 kts 45°
2026-04-30 12:39 64.23477 -1.83027 37263 ft 541 kts 45°
2026-04-30 12:40 64.28779 -1.70807 37269 ft 540 kts 45°
2026-04-30 12:40 64.34065 -1.58552 37270 ft 540 kts 45°
2026-04-30 12:41 64.39323 -1.46290 37272 ft 540 kts 45°
2026-04-30 12:41 64.44578 -1.33969 37273 ft 540 kts 46°
2026-04-30 12:42 64.49817 -1.21610 37283 ft 540 kts 46°
2026-04-30 12:42 64.55045 -1.09206 37288 ft 541 kts 46°
2026-04-30 12:43 64.60287 -0.96695 37274 ft 542 kts 46°
2026-04-30 12:43 64.65549 -0.84064 37265 ft 543 kts 46°
2026-04-30 12:44 64.70767 -0.71463 37266 ft 543 kts 46°
2026-04-30 12:44 64.75974 -0.58816 37268 ft 543 kts 46°
2026-04-30 12:45 64.81181 -0.46093 37267 ft 542 kts 46°
2026-04-30 12:45 64.86393 -0.33282 37267 ft 542 kts 47°
2026-04-30 12:46 64.91567 -0.20491 37265 ft 542 kts 47°
2026-04-30 12:46 64.96733 -0.07639 37265 ft 543 kts 47°
2026-04-30 12:47 65.01859 0.05426 37266 ft 543 kts 49°
2026-04-30 12:47 65.06731 0.19046 37279 ft 543 kts 51°
2026-04-30 12:48 65.11544 0.32720 37265 ft 542 kts 50°
2026-04-30 12:48 65.16316 0.46338 37254 ft 538 kts 50°
2026-04-30 12:49 65.21081 0.60001 37265 ft 536 kts 50°
2026-04-30 12:49 65.25816 0.73645 37271 ft 536 kts 51°
2026-04-30 12:50 65.30543 0.87344 37268 ft 536 kts 51°
2026-04-30 12:50 65.35262 1.01097 37264 ft 536 kts 51°
2026-04-30 12:51 65.39979 1.14922 37266 ft 536 kts 50°
2026-04-30 12:51 65.44652 1.28699 37267 ft 536 kts 50°
2026-04-30 12:52 65.49340 1.42607 37265 ft 535 kts 50°
2026-04-30 12:52 65.53982 1.56460 37263 ft 535 kts 50°
2026-04-30 12:53 65.58635 1.70432 37265 ft 535 kts 51°
2026-04-30 12:53 65.63285 1.84484 37265 ft 535 kts 51°
2026-04-30 12:54 65.67901 1.98518 37265 ft 535 kts 51°
2026-04-30 12:54 65.72474 2.12513 37266 ft 535 kts 51°
2026-04-30 12:55 65.77086 2.26713 37266 ft 535 kts 51°
2026-04-30 12:55 65.81651 2.40862 37266 ft 534 kts 51°
2026-04-30 12:56 65.86231 2.55145 37266 ft 534 kts 51°
2026-04-30 12:56 65.90767 2.69386 37267 ft 534 kts 52°
2026-04-30 12:57 65.95289 2.83673 37265 ft 533 kts 52°
2026-04-30 12:57 65.99819 2.98078 37263 ft 533 kts 52°
2026-04-30 12:58 66.04288 3.12379 37263 ft 532 kts 52°
2026-04-30 12:58 66.08789 3.26880 37256 ft 532 kts 51°
2026-04-30 12:59 66.13219 3.41244 37261 ft 531 kts 51°
2026-04-30 12:59 66.17673 3.55777 37269 ft 533 kts 51°
2026-04-30 13:00 66.22122 3.70395 37264 ft 534 kts 52°
2026-04-30 13:00 66.26551 3.85042 37259 ft 534 kts 52°
2026-04-30 13:01 66.30990 3.99820 37249 ft 533 kts 52°
2026-04-30 13:01 66.35377 4.14526 37239 ft 532 kts 52°
2026-04-30 13:02 66.39741 4.29247 37239 ft 532 kts 52°
2026-04-30 13:02 66.44113 4.44094 37231 ft 531 kts 52°
2026-04-30 13:03 66.48444 4.58904 37233 ft 531 kts 52°
2026-04-30 13:03 66.52814 4.73948 37228 ft 532 kts 53°
2026-04-30 13:04 66.57128 4.88898 37210 ft 533 kts 53°
2026-04-30 13:04 66.61471 5.04053 37198 ft 533 kts 52°
2026-04-30 13:05 66.65772 5.19166 37198 ft 533 kts 52°
2026-04-30 13:06 66.72212 5.41989 37203 ft 533 kts 52°
2026-04-30 13:06 66.76472 5.57216 37194 ft 533 kts 52°
2026-04-30 13:07 66.80768 5.72682 37193 ft 533 kts 53°
2026-04-30 13:07 66.85002 5.88029 37192 ft 533 kts 53°
2026-04-30 13:08 66.89195 6.03331 37191 ft 533 kts 53°
2026-04-30 13:08 66.93426 6.18887 37190 ft 533 kts 53°
2026-04-30 13:09 66.97600 6.34336 37189 ft 533 kts 53°
2026-04-30 13:09 67.01784 6.49936 37188 ft 533 kts 52°
2026-04-30 13:10 67.05936 6.65526 37187 ft 533 kts 53°
2026-04-30 13:10 67.10069 6.81151 37182 ft 532 kts 53°
2026-04-30 13:11 67.14200 6.96882 37186 ft 532 kts 53°
2026-04-30 13:11 67.18298 7.12603 37185 ft 532 kts 53°
2026-04-30 13:12 67.22398 7.28439 37184 ft 532 kts 53°
2026-04-30 13:12 67.26475 7.44302 37184 ft 532 kts 53°
2026-04-30 13:13 67.32538 7.68111 37183 ft 531 kts 54°
2026-04-30 13:14 67.38597 7.92164 37182 ft 532 kts 54°
2026-04-30 13:14 67.44610 8.16298 37184 ft 533 kts 54°
2026-04-30 13:15 67.50614 8.40668 37186 ft 533 kts 53°
2026-04-30 13:16 67.54575 8.56895 37191 ft 533 kts 53°
2026-04-30 13:16 67.58522 8.73188 37196 ft 532 kts 54°
2026-04-30 13:17 67.64429 8.97801 37168 ft 532 kts 54°
2026-04-30 13:18 67.70264 9.22390 37153 ft 531 kts 54°
2026-04-30 13:18 67.76059 9.47083 37158 ft 530 kts 54°
2026-04-30 13:19 67.79917 9.63683 37157 ft 530 kts 54°
2026-04-30 13:19 67.83747 9.80290 37156 ft 530 kts 54°
2026-04-30 13:20 67.87549 9.96902 37155 ft 531 kts 54°
2026-04-30 13:20 67.91349 10.13634 37155 ft 531 kts 54°
2026-04-30 13:21 67.95123 10.30384 37155 ft 532 kts 54°
2026-04-30 13:22 68.00778 10.55722 37154 ft 532 kts 54°
2026-04-30 13:22 68.06392 10.81181 37149 ft 531 kts 55°
2026-04-30 13:23 68.12152 11.06388 37151 ft 529 kts 51°
2026-04-30 13:24 68.20230 11.39338 37155 ft 530 kts 51°
2026-04-30 13:25 68.28200 11.72385 37166 ft 528 kts 52°
2026-04-30 13:26 68.38073 12.14053 37146 ft 526 kts 52°
2026-04-30 13:28 68.47770 12.55791 37139 ft 524 kts 51°
2026-04-30 13:28 68.53556 12.81082 37131 ft 524 kts 52°
2026-04-30 13:29 68.61195 13.14939 37130 ft 525 kts 52°
2026-04-30 13:31 68.70649 13.57603 37128 ft 525 kts 52°
2026-04-30 13:32 68.79999 14.00650 37132 ft 524 kts 53°
2026-04-30 13:33 68.87360 14.35273 37124 ft 523 kts 53°
2026-04-30 13:34 68.92846 14.61387 37114 ft 521 kts 52°
2026-04-30 13:35 69.00098 14.96326 37068 ft 523 kts 54°
2026-04-30 13:35 69.03674 15.13799 36297 ft 516 kts 54°
2026-04-30 13:36 69.07198 15.31048 35075 ft 507 kts 52°
2026-04-30 13:36 69.08920 15.39513 34439 ft 504 kts 53°
2026-04-30 13:36 69.12351 15.56552 32874 ft 501 kts 53°
2026-04-30 13:37 69.14041 15.65135 32049 ft 499 kts 54°
2026-04-30 13:37 69.17392 15.82124 30257 ft 500 kts 53°
2026-04-30 13:38 69.20756 15.99208 28101 ft 506 kts 53°
2026-04-30 13:38 69.22456 16.07899 26951 ft 508 kts 54°
2026-04-30 13:38 69.25796 16.25119 24534 ft 496 kts 54°
2026-04-30 13:39 69.28981 16.41704 22179 ft 471 kts 54°
2026-04-30 13:39 69.32016 16.57605 20327 ft 449 kts 54°
2026-04-30 13:40 69.33485 16.65336 19653 ft 438 kts 56°
2026-04-30 13:40 69.34890 16.72761 19047 ft 426 kts 56°
2026-04-30 13:40 69.36276 16.80107 18484 ft 419 kts 56°
2026-04-30 13:40 69.37653 16.87405 17971 ft 419 kts 56°
2026-04-30 13:41 69.39005 16.94603 17456 ft 417 kts 57°
2026-04-30 13:41 69.40357 17.01835 16928 ft 413 kts 57°
2026-04-30 13:41 69.41708 17.09083 16398 ft 410 kts 57°
2026-04-30 13:41 69.43027 17.16189 15862 ft 406 kts 57°
2026-04-30 13:42 69.44321 17.23186 15334 ft 403 kts 57°
2026-04-30 13:42 69.45626 17.30258 14803 ft 400 kts 57°
2026-04-30 13:42 69.48158 17.44072 13750 ft 388 kts 57°
2026-04-30 13:43 69.49375 17.50794 13256 ft 380 kts 58°
2026-04-30 13:43 69.50531 17.57642 12773 ft 384 kts 60°
2026-04-30 13:43 69.51659 17.64506 12473 ft 380 kts 60°
2026-04-30 13:43 69.52774 17.71320 12242 ft 377 kts 61°
2026-04-30 13:44 69.53881 17.78101 11896 ft 370 kts 61°
2026-04-30 13:44 69.54950 17.84681 11573 ft 362 kts 62°
2026-04-30 13:44 69.56029 17.91143 11259 ft 350 kts 57°
2026-04-30 13:44 69.57468 17.96548 10893 ft 335 kts 43°
2026-04-30 13:45 69.60522 18.06469 9941 ft 328 kts 44°
2026-04-30 13:45 69.62022 18.11378 9500 ft 324 kts 44°
2026-04-30 13:45 69.63479 18.16158 9072 ft 320 kts 44°
2026-04-30 13:46 69.64942 18.20963 8601 ft 317 kts 44°
2026-04-30 13:46 69.66377 18.25690 8216 ft 311 kts 44°
2026-04-30 13:46 69.67791 18.30368 7759 ft 305 kts 45°
2026-04-30 13:46 69.69160 18.34889 7397 ft 294 kts 43°
2026-04-30 13:47 69.70693 18.38416 6981 ft 274 kts 20°
2026-04-30 13:47 69.72425 18.40112 6644 ft 257 kts
2026-04-30 13:47 69.74122 18.41431 6321 ft 244 kts
2026-04-30 13:47 69.75681 18.43079 5995 ft 231 kts 19°
2026-04-30 13:48 69.77034 18.45423 5725 ft 224 kts 30°
2026-04-30 13:48 69.78175 18.48414 5373 ft 219 kts 43°
2026-04-30 13:48 69.79044 18.51861 5115 ft 207 kts 56°
2026-04-30 13:48 69.79666 18.55530 4835 ft 201 kts 67°
2026-04-30 13:49 69.80059 18.59406 4558 ft 196 kts 78°
2026-04-30 13:49 69.80286 18.63250 4273 ft 196 kts 88°
2026-04-30 13:49 69.80221 18.67122 4034 ft 190 kts 103°
2026-04-30 13:49 69.79899 18.70864 3757 ft 187 kts 115°
2026-04-30 13:50 69.79431 18.74328 3524 ft 182 kts 119°
2026-04-30 13:50 69.78497 18.81058 2912 ft 175 kts 119°
2026-04-30 13:50 69.78031 18.84362 2605 ft 177 kts 119°
2026-04-30 13:51 69.77572 18.87549 2349 ft 161 kts 123°
2026-04-30 13:51 69.77025 18.90162 2117 ft 143 kts 137°
2026-04-30 13:51 69.76372 18.92132 1827 ft 131 kts 149°
2026-04-30 13:51 69.75633 18.93592 1667 ft 127 kts 161°
2026-04-30 13:52 69.74831 18.94548 1420 ft 119 kts 172°
2026-04-30 13:52 69.74019 18.95012 1252 ft 120 kts 180°
2026-04-30 13:52 69.73206 18.95046 1030 ft 116 kts 190°
2026-04-30 13:52 69.72417 18.94676 917 ft 113 kts 197°
2026-04-30 13:53 69.71646 18.94131 777 ft 116 kts 195°
2026-04-30 13:53 69.70863 18.93632 586 ft 115 kts 196°
2026-04-30 13:53 69.70081 18.93088 333 ft 115 kts 195°
2026-04-30 13:53 69.69302 18.92554 116 ft 114 kts 193°
2026-04-30 13:54 69.68559 18.92053 -1 ft 101 kts 192°
2026-04-30 13:54 69.68057 18.91716 6 ft 39 kts 197°
2026-04-30 13:54 69.67801 18.91544 12 ft 34 kts 195°
2026-04-30 13:54 69.67728 18.91444 15 ft 6 kts 258°
2026-04-30 13:55 69.67738 18.91296 16 ft 8 kts 282°
2026-04-30 13:55 69.67754 18.91146 16 ft 8 kts 311°
2026-04-30 13:55 69.67804 18.91109 16 ft 8 kts 333°
2026-04-30 13:55 69.67828 18.90944 15 ft 7 kts 282°
2026-04-30 13:56 69.67830 18.90932 15 ft 0 kts 282°